Location: Gugi
(45.4667°N, 11.1000°E)
Time: 19:29:35
(UTC+00:00)

Daily predictions for brighter satellites

Satellite Brightness Start Highest point End
(mag) Time Altitude Azimuth Time Altitude Azimuth Time Altitude Azimuth
Cosmos 2369 Rocket 4.5 16:10:35 10° WNW 16:13:44 15° NW 16:16:54 10° N
Meteor 2-10 Rocket 4.1 16:11:00 10° SSW 16:15:56 60° WNW 16:20:58 10° N
Cosmos 2219 3.2 16:10:23 10° NNW 16:16:03 88° ENE 16:21:40 10° SSE
SMAP 3.2 16:12:27 10° SSE 16:16:56 52° ENE 16:21:28 10° N
Helios 1A Rocket 4.2 16:13:12 10° S 16:17:13 48° W 16:21:16 10° NNW
Okean-O 3.3 16:16:13 10° SE 16:20:12 33° ENE 16:24:11 10° N
Cosmos 1805 Rocket 3.8 16:16:14 10° N 16:20:26 46° ENE 16:24:39 10° SSE
Cosmos 1743 Rocket 3.9 16:16:22 10° NNW 16:20:44 71° W 16:25:05 10° S
Cosmos 1867 4.3 16:17:37 10° SW 16:22:56 52° NW 16:28:19 10° NNE
Cosmos 1455 4.5 16:19:50 10° SW 16:23:00 25° WNW 16:26:10 10° NNW
CORIOLIS 4.3 16:17:57 10° SE 16:23:11 53° ENE 16:28:29 10° N
CZ-4B R/B 4.1 16:24:15 10° NNW 16:26:42 19° WNW 16:29:11 10° WSW
Cosmos 1980 Rocket 3.6 16:24:18 10° SE 16:27:53 17° E 16:31:29 10° ENE
Cosmos 2233 Rocket 4.2 16:23:07 10° N 16:29:28 84° W 16:35:45 10° S
Cosmos 2297 Rocket 2.2 16:26:48 10° NNW 16:32:30 81° ENE 16:38:09 10° SSE
Cosmos 2227 Rocket 2.2 16:27:03 10° NNW 16:32:45 76° ENE 16:38:24 10° SSE
Cosmos 1538 Rocket 4.0 16:27:47 10° SSW 16:33:02 78° ESE 16:38:23 10° NNE
USA 215 4.1 16:27:37 10° ENE 16:33:19 33° N 16:39:01 10° NW
Cosmos 1869 3.2 16:32:06 10° S 16:36:01 64° E 16:39:55 10° NNE
PSLV R/B 4.4 16:36:36 10° N 16:40:48 65° WNW 16:44:57 10° SSW
Meteor 2-20 4.4 16:34:45 10° S 16:40:50 76° E 16:47:00 10° NNE
USA 229 DEB 3.7 16:35:00 10° SW 16:41:34 89° SE 16:48:30 10° NE
USA 229 3.7 16:35:07 10° SW 16:41:41 89° ESE 16:48:36 10° NE
Cosmos 1356 Rocket 3.4 16:38:55 10° S 16:43:02 64° E 16:47:15 10° NNE
Okean O Rocket 4.0 16:40:54 10° SSW 16:44:41 28° W 16:48:29 10° NW
NOSS 3-1 (C) 3.3 16:40:32 10° SW 16:46:03 88° SE 16:52:29 10° NE
NOSS 3-1 (A) 3.4 16:41:30 10° SSW 16:46:53 60° ESE 16:52:59 10° NE
PSLV R/B 4.5 16:45:34 10° WSW 16:47:44 24° S 16:49:52 10° SE
Cosmos 2344 4.4 16:40:53 10° WSW 16:48:05 48° NW 16:56:19 10° NE
Cosmos 1633 Rocket 3.5 16:44:13 10° N 16:48:24 40° ENE 16:52:32 10° SE
NOSS 2-3 (D) 4.4 16:44:44 10° S 16:48:39 35° ESE 16:52:00 16° ENE
Cosmos 1238 Rocket 4.1 16:46:46 10° NNW 16:50:45 42° W 16:54:06 10° SSW
H-2A R/B 2.8 16:47:11 10° S 16:51:01 82° WSW 16:54:51 10° NNW
Cosmos 2263 Rocket 3.6 16:48:05 10° N 16:51:49 18° NE 16:53:24 16° ENE
Cosmos 2369 3.9 16:47:58 10° S 16:53:27 53° ESE 16:58:59 10° NE
SeaSat 1 2.5 16:49:26 10° SE 16:54:16 58° ENE 16:59:08 10° NNW
AQUARIUS 4.4 16:49:57 10° S 16:54:27 75° WSW 16:58:58 10° NNW
FengYun 1-2 T 4.4 16:49:58 10° SE 16:55:14 48° ENE 17:00:29 10° N
Cosmos 1891 Rocket 4.5 16:49:03 10° N 16:55:23 64° E 17:01:32 10° SSE
Cosmos 1464 Rocket 3.9 16:49:30 10° N 16:55:38 64° E 17:01:42 10° SSE
Envisat 3.0 16:52:00 10° SSE 16:57:00 62° ENE 17:02:01 10° N
Lacrosse 4 Rocket 1.3 16:52:59 10° SSW 16:57:01 65° ESE 17:00:16 15° NE
NOAA 12 4.0 16:52:08 10° SSE 16:57:27 77° ENE 17:02:48 10° N
Sich 1 2.9 16:53:20 10° N 16:57:42 82° E 17:02:06 10° S
Cosmos 724 4.4 16:53:54 10° NNW 16:59:38 52° NE 17:05:15 10° SE
Cosmos 1151 Rocket 3.7 16:56:12 10° SSE 17:00:05 32° E 17:04:01 10° NNE
CZ-4 R/B 1.9 16:57:07 10° SE 17:00:58 38° ENE 17:04:45 10° N
Cosmos 1666 Rocket 3.4 16:57:24 10° N 17:01:47 66° E 17:06:05 10° SSE
GEOS 3 Rocket 3.6 16:56:56 12° NE 17:01:53 78° SE 17:07:10 10° SW
Cosmos 2082 3.6 16:56:33 10° NNW 17:02:12 80° ENE 17:07:50 10° SSE
COSMO-SKYMED 1 2.9 16:58:14 10° NNE 17:02:22 42° E 17:06:30 10° S
ATLAS 5 CENTAUR R/B 3.1 16:57:08 10° NW 17:02:55 59° WSW 17:09:27 10° SSE
Cosmos 1328 Rocket 4.0 16:59:20 10° SSE 17:03:25 38° E 17:07:30 10° NNE
ERBS 2.4 17:01:29 10° WSW 17:04:47 67° NW 17:06:38 24° NE
Cosmos 1072 Rocket 4.4 16:59:37 10° N 17:05:47 82° E 17:11:59 10° S
Cosmos 397 4.4 17:01:43 10° NNW 17:05:48 57° NE 17:09:57 10° SE
Cosmos 1633 2.4 17:02:21 10° N 17:06:01 82° E 17:09:37 10° S
Cosmos 1697 Rocket 2.7 17:00:35 10° S 17:06:09 63° ESE 17:11:31 11° NNE
Cosmos 1939 Rocket 4.5 17:12:11 19° NE 17:12:11 19° NE 17:14:00 10° NNE
Cosmos 2278 3.8 17:06:49 10° S 17:12:20 56° ESE 17:17:01 15° NE
Cosmos 1371 Rocket 4.1 17:11:40 10° NNW 17:16:43 48° ENE 17:21:43 10° SE
CENTAUR R/B 4.4 17:14:22 10° NW 17:19:49 21° NNE 17:23:14 17° NE
Geosat 4.0 17:18:57 11° NNE 17:23:51 83° WNW 17:28:53 10° SSW
NOSS 2-3 (C) 3.6 17:22:02 10° SSW 17:26:22 78° SE 17:28:59 28° NE
SKYMED 3 4.4 17:22:10 10° NNE 17:26:32 76° ESE 17:30:52 10° S
USA 116 4.4 17:23:10 15° NNE 17:26:57 52° E 17:31:58 10° S
YAOGAN 1 2.5 17:24:00 10° SSE 17:28:14 59° ENE 17:32:30 10° N
Cosmos 1656 4.3 17:22:50 10° SW 17:28:15 54° WNW 17:33:38 10° NNE
Cosmos 158 Rocket 4.2 17:24:19 10° S 17:29:21 46° ESE 17:31:19 31° NE
Cosmos 2112 Rocket 3.9 17:25:26 10° SSW 17:30:35 72° ESE 17:34:25 19° NNE
Cosmos 1862 3.8 17:28:19 10° NNW 17:32:15 62° W 17:36:11 10° S
Cosmos 1470 Rocket 3.5 17:28:25 10° N 17:32:55 65° E 17:37:21 10° SSE
Meteor 2-11 Rocket 4.4 17:27:59 10° N 17:34:09 87° E 17:40:17 10° S
Cosmos 2346 Rocket 4.4 17:28:16 10° S 17:34:27 70° E 17:40:36 10° NNE
YAOGAN 6 2.6 17:32:30 10° S 17:35:59 74° WSW 17:39:29 10° NNW
Cosmos 1680 Rocket 3.5 17:31:54 10° SSW 17:37:08 86° WNW 17:41:27 16° NNE
ATLAS 3B R/B 4.2 17:35:24 10° NNW 17:39:41 17° NNE 17:41:17 16° NNE
Ariane Rocket 3.5 17:40:34 37° NE 17:40:34 37° NE 17:44:43 10° N
NOAA 11 4.2 17:36:38 10° SSE 17:41:55 57° ENE 17:47:15 10° N
CSL-04 Debris 4.1 17:38:29 10° SSE 17:43:59 85° ENE 17:49:31 10° NNW
Meteor 1-25 Rocket 4.4 17:41:44 10° N 17:47:13 48° ENE 17:48:25 42° ESE
SKYMED 2 4.0 17:46:16 10° N 17:50:34 60° WNW 17:54:50 10° SSW
Meteor 1-20 Rocket 4.3 17:46:18 10° N 17:52:03 53° ENE 17:53:30 42° ESE
Cosmos 2034 Rocket 4.4 17:47:31 10° NNW 17:53:50 67° W 18:00:08 10° S
IRS-1A Rocket 4.4 17:56:24 50° ENE 17:56:29 50° ENE 18:02:01 10° N
CSL-04 Rocket 3.8 17:53:39 10° S 17:58:59 74° WSW 18:04:18 10° NNW
H-2A R/B 4.4 18:07:12 11° N 18:07:12 11° N 18:07:30 10° N
SL-16 R/B 4.0 18:02:33 10° SSE 18:03:46 16° SSE 18:03:46 16° SSE
Cosmos 1624 Rocket 4.2 18:02:32 10° NNW 18:07:53 74° WSW 18:11:43 19° S
Cosmos 2056 Rocket 3.6 18:03:23 10° NNW 18:08:31 75° WSW 18:11:21 27° S
Cosmos 1980 Rocket 2.3 18:05:32 10° SSW 18:11:12 75° WNW 18:13:24 39° NNE
Cosmos 1634 Rocket 3.8 18:07:00 10° N 18:13:14 78° E 18:19:23 10° SSE
USA 215 3.4 18:14:46 52° NE 18:15:33 55° NNE 18:21:54 10° NW
Cosmos 2322 Rocket 4.5 18:11:17 10° SSE 18:11:21 10° SSE 18:11:21 10° SSE
Tsikada Rocket 4.3 18:12:27 10° SSW 18:18:47 66° W 18:25:12 10° N
Cosmos 2142 Rocket 4.4 18:14:40 10° N 18:21:00 70° ENE 18:21:00 70° ENE
BREEZE-M DEB (TANK) 4.0 18:25:03 10° WNW 18:28:05 29° NW 18:28:05 29° NW
CZ-4 R/B 4.0 18:33:02 10° SW 18:36:06 20° W 18:39:09 10° NW
Lacrosse 4 Rocket 3.8 18:33:26 10° W 18:36:06 17° NW 18:36:37 16° NW
Cosmos 2263 Rocket 2.6 18:30:58 10° NNW 18:35:08 52° NNW 18:35:08 52° NNW
CENTAUR R/B 4.0 19:05:21 10° NNW 19:10:25 36° N 19:10:25 36° N
ATLAS 3B R/B 4.4 19:26:08 10° NNW 19:28:32 22° NNW 19:28:32 22° NNW
